Harlingen, TX

7:00 PM CDT on September 19, 2017 (GMT -0500)
Valley International

Weather History for KHRL - November, 2013

Change the Weather History Date:

Wednesday, November 20, 2013

  Actual Average Record
Temperature  
Mean Temperature 73 °F 67 °F  
Max Temperature 82 °F 78 °F 93 °F (1988)
Min Temperature 63 °F 56 °F 29 °F (1935)
Degree Days  
Heating Degree Days 0 2  
Month to date heating degree days 23 21  
Since 1 July heating degree days 23 24  
Cooling Degree Days 8 4  
Month to date cooling degree days 112 123  
Year to date cooling degree days 4009 3899  
Growing Degree Days 22 (Base 50)    
Moisture  
Dew Point 68 °F    
Average Humidity 84    
Maximum Humidity 100    
Minimum Humidity 67    
Precipitation  
Precipitation T in 0.02 in 1.05 in (1931)
Month to date precipitation 1.72 1.16  
Year to date precipitation 23.53 23.58  
Sea Level Pressure  
Sea Level Pressure 29.90 in    
Wind  
Wind Speed 6 mph (South)    
Max Wind Speed 17 mph    
Max Gust Speed 22 mph    
Visibility 8 miles    
Events Fog    
T = Trace of Precipitation, MM = Missing Value Source: NWS Daily Summary

Daily Weather History Graph

Daily Weather History Graph

Search for Another Location

Airport or City:

Trip Planner

Search our weather history database for the weather conditions in past years. The results will help you decide how hot, cold, wet, or windy it might be!

Date:

Astronomy

Nov. 20, 2013 Rise Set
Actual Time 6:53 AM CST 5:39 PM CST
Civil Twilight 6:28 AM CST 6:03 PM CST
Nautical Twilight 6:00 AM CST 6:32 PM CST
Astronomical Twilight 5:32 AM CST 6:59 PM CST
Moon 8:23 PM CST 9:18 AM CST
Length of Visible Light 11h 35m
Length of Day
10h 46m
Waning Gibbous, 91% of the Moon is Illuminated
Nov 20
Waning Gibbous
Nov 25
Last Quarter
Dec 2
New
Dec 9
First Quarter
Dec 17
Full

Hourly Weather History & Observations

Time (CST) Temp. Heat Index Dew Point Humidity Pressure Visibility Wind Dir Wind Speed Gust Speed Precip Events Conditions
12:12 AM 68.0 °F - 68.0 °F 100% 29.93 in 10.0 mi North 6.9 mph - N/A   Mostly Cloudy
12:34 AM 66.2 °F - 66.2 °F 100% 29.93 in 10.0 mi North 4.6 mph - N/A   Mostly Cloudy
12:52 AM 68.0 °F - 68.0 °F 100% 29.93 in 10.0 mi NNW 4.6 mph - N/A   Overcast
1:15 AM 68.0 °F - 68.0 °F 100% 29.92 in 10.0 mi Calm Calm - N/A   Overcast
1:41 AM 68.0 °F - 68.0 °F 100% 29.91 in 10.0 mi NNW 3.5 mph - N/A   Overcast
1:52 AM 68.0 °F - 68.0 °F 100% 29.91 in 10.0 mi NW 3.5 mph - N/A   Overcast
2:52 AM 66.9 °F - 66.9 °F 100% 29.91 in 10.0 mi WNW 3.5 mph - 0.00 in   Overcast
3:03 AM 66.2 °F - 66.2 °F 100% 29.90 in 10.0 mi WNW 3.5 mph - N/A   Mostly Cloudy
3:40 AM 66.2 °F - 66.2 °F 100% 29.90 in 8.0 mi NNW 4.6 mph - N/A   Scattered Clouds
3:52 AM 64.9 °F - 64.9 °F 100% 29.90 in 8.0 mi Calm Calm - N/A   Partly Cloudy
4:52 AM 64.0 °F - 64.0 °F 100% 29.89 in 6.0 mi North 5.8 mph - N/A   Clear
5:29 AM 64.4 °F - 64.4 °F 100% 29.89 in 6.0 mi North 3.5 mph - N/A   Partly Cloudy
5:52 AM 64.0 °F - - N/A% 29.89 in 3.0 mi Calm Calm - N/A   Scattered Clouds
5:58 AM 64.4 °F - - N/A% 29.89 in 2.0 mi Calm Calm - N/A   Mostly Cloudy
6:13 AM 64.4 °F - 64.4 °F 100% 29.89 in 5.0 mi NNW 3.5 mph - N/A   Mostly Cloudy
6:30 AM 64.4 °F - 64.4 °F 100% 29.90 in 5.0 mi Calm Calm - N/A   Scattered Clouds
6:52 AM 63.0 °F - - N/A% 29.91 in 2.0 mi Calm Calm - N/A   Partly Cloudy
7:05 AM 62.6 °F - - N/A% 29.91 in 3.0 mi WNW 3.5 mph - N/A   Mostly Cloudy
7:19 AM 64.4 °F - 64.4 °F 100% 29.92 in 1.5 mi NW 3.5 mph - N/A   Overcast
7:26 AM 64.4 °F - 64.4 °F 100% 29.92 in 0.2 mi Calm Calm - N/A Fog Fog
7:52 AM 66.0 °F - - N/A% 29.93 in 0.2 mi Calm Calm - N/A Fog Fog
8:52 AM 68.0 °F - - N/A% 29.93 in 0.8 mi Calm Calm - N/A   Overcast
8:59 AM 68.0 °F - - N/A% 29.93 in 2.0 mi Calm Calm - N/A   Overcast
9:07 AM 69.8 °F - - N/A% 29.93 in 5.0 mi Calm Calm - N/A   Haze
9:09 AM 69.8 °F - - N/A% 29.93 in 7.0 mi Calm Calm - N/A   Overcast
9:22 AM 69.8 °F - - N/A% 29.94 in 10.0 mi SSE 4.6 mph - N/A   Overcast
9:52 AM 69.1 °F - 69.1 °F 100% 29.94 in 10.0 mi Variable 3.5 mph - N/A   Overcast
10:21 AM 73.4 °F - 69.8 °F 88% 29.93 in 10.0 mi Calm Calm - N/A   Scattered Clouds
10:52 AM 73.9 °F - 70.0 °F 87% 29.93 in 10.0 mi Calm Calm - N/A   Scattered Clouds
11:00 AM 75.2 °F - 69.8 °F 83% 29.93 in 10.0 mi South 4.6 mph - N/A   Mostly Cloudy
11:11 AM 75.2 °F - 71.6 °F 89% 29.92 in 10.0 mi SSE 8.1 mph - N/A   Scattered Clouds
11:52 AM 78.1 °F - 70.0 °F 76% 29.91 in 10.0 mi SSE 9.2 mph - N/A   Scattered Clouds
12:52 PM 78.1 °F - 69.1 °F 74% 29.87 in 10.0 mi SW 5.8 mph - N/A   Scattered Clouds
1:52 PM 79.0 °F - 69.1 °F 72% 29.85 in 10.0 mi SE 5.8 mph - N/A   Mostly Cloudy
2:52 PM 79.0 °F - 70.0 °F 74% 29.83 in 10.0 mi SSW 11.5 mph - 0.00 in   Mostly Cloudy
3:52 PM 81.0 °F 83.8 °F 68.0 °F 65% 29.82 in 10.0 mi South 13.8 mph 20.7 mph 0.00 in   Scattered Clouds
4:52 PM 78.1 °F - 68.0 °F 71% 29.83 in 10.0 mi South 12.7 mph - N/A   Partly Cloudy
5:52 PM 73.9 °F - 69.1 °F 85% 29.85 in 10.0 mi SSE 11.5 mph - N/A   Clear
6:52 PM 72.0 °F - 70.0 °F 93% 29.87 in 10.0 mi SE 11.5 mph - N/A   Clear
7:52 PM 70.0 °F - 70.0 °F 100% 29.89 in 10.0 mi SSE 9.2 mph - N/A   Clear
8:52 PM 70.0 °F - 70.0 °F 100% 29.91 in 10.0 mi SE 9.2 mph - N/A   Clear
9:52 PM 70.0 °F - 70.0 °F 100% 29.91 in 9.0 mi SE 8.1 mph - N/A   Clear
10:52 PM 69.1 °F - - N/A% 29.92 in 10.0 mi SE 6.9 mph - N/A   Clear
11:52 PM 69.1 °F - - N/A% 29.92 in 10.0 mi SE 6.9 mph - N/A   Mostly Cloudy